Weather History for Fort Indiantown Gap, PA

Change the Weather History Date:

Friday, March 23, 2012

  Actual Average Record
Temperature  
Mean Temperature 62 °F -  
Max Temperature 79 °F 49 °F 79 °F (2012)
Min Temperature 44 °F 33 °F 21 °F (2004)
Degree Days  
Heating Degree Days 4    
Growing Degree Days 12 (Base 50)    
Moisture  
Dew Point 50 °F    
Average Humidity 87    
Maximum Humidity 100    
Minimum Humidity 38    
Precipitation  
Precipitation 0.00 in - - ()
Sea Level Pressure  
Sea Level Pressure 30.09 in    
Wind  
Wind Speed 1 mph (ENE)    
Max Wind Speed 7 mph    
Max Gust Speed -    
Visibility 4 miles    
Events Fog    
Averages and records for this station are not official NWS values.
T = Trace of Precipitation, MM = Missing Value Source: NWS Daily Summary

Daily Weather History Graph

Daily Weather History Graph

Search for Another Location

Airport:

Trip Planner

Search our weather history database for the weather conditions in past years. The results will help you decide how hot, cold, wet, or windy it might be!

Date:

Astronomy

Mar. 23, 2012 Rise Set
Actual Time 7:03 AM EDT 7:22 PM EDT
Civil Twilight 6:36 AM EDT 7:49 PM EDT
Nautical Twilight 6:04 AM EDT 8:21 PM EDT
Astronomical Twilight 5:32 AM EDT 8:54 PM EDT
Moon 7:10 AM EDT 8:42 PM EDT
Length of Visible Light 13h 12m
Length of Day
12h 18m
New Moon, 1% of the Moon is Illuminated
Mar 23
New Moon
Mar 30
First Quarter
Apr 6
Full
Apr 13
Last Quarter
Apr 21
New

Hourly Weather History & Observations

Time (EDT) Temp. Dew Point Humidity Pressure Visibility Wind Dir Wind Speed Gust Speed Precip Events Conditions
12:01 AM 53.6 °F 53.6 °F 100% 30.14 in 1.2 mi Calm Calm - N/A   Light Drizzle
12:11 AM 51.8 °F 50.0 °F 94% 30.14 in 1.0 mi Calm Calm - N/A   Light Drizzle
12:12 AM 51.8 °F 50.0 °F 94% 30.14 in 0.8 mi Calm Calm - N/A   Light Drizzle
12:13 AM 50.0 °F 50.0 °F 100% 30.14 in 0.5 mi Calm Calm - N/A Fog Light Drizzle
12:15 AM 50.0 °F 50.0 °F 100% 30.14 in 0.2 mi Calm Calm - N/A Fog Light Drizzle
12:55 AM 51.4 °F 51.1 °F 99% 30.13 in 0.2 mi Calm Calm - 0.00 in Fog Light Drizzle
1:27 AM 50.0 °F 50.0 °F 100% 30.12 in 0.2 mi Calm Calm - N/A Fog Light Drizzle
1:55 AM 51.1 °F 50.9 °F 99% 30.11 in 0.2 mi Calm Calm - 0.00 in Fog Light Drizzle
2:01 AM 51.8 °F 51.8 °F 100% 30.11 in 0.5 mi Calm Calm - N/A Fog Light Drizzle
2:10 AM 50.0 °F 50.0 °F 100% 30.11 in 0.2 mi Calm Calm - N/A Fog Light Drizzle
2:39 AM 50.0 °F 50.0 °F 100% 30.11 in 0.5 mi Calm Calm - N/A Fog Light Drizzle
2:46 AM 48.2 °F 48.2 °F 100% 30.11 in 0.2 mi Calm Calm - N/A Fog Light Drizzle
2:55 AM 47.7 °F 47.3 °F 99% 30.10 in 0.2 mi Calm Calm - 0.00 in Fog Light Drizzle
3:48 AM 48.2 °F 46.4 °F 93% 30.09 in 0.2 mi Calm Calm - N/A Fog Light Drizzle
3:55 AM 47.3 °F 46.9 °F 99% 30.09 in 0.2 mi Calm Calm - 0.00 in Fog Light Drizzle
4:15 AM 48.2 °F 48.2 °F 100% 30.09 in 0.5 mi Calm Calm - N/A Fog Light Drizzle
4:20 AM 48.2 °F 48.2 °F 100% 30.09 in 0.8 mi Calm Calm - N/A   Light Drizzle
4:24 AM 48.2 °F 46.4 °F 93% 30.09 in 1.0 mi Calm Calm - N/A   Light Drizzle
4:26 AM 46.4 °F 46.4 °F 100% 30.09 in 0.8 mi Calm Calm - N/A   Light Drizzle
4:30 AM 46.4 °F 46.4 °F 100% 30.09 in 0.5 mi Calm Calm - N/A Fog Light Drizzle
4:32 AM 48.2 °F 46.4 °F 93% 30.09 in 0.2 mi Calm Calm - N/A Fog Light Drizzle
4:55 AM 46.4 °F 46.2 °F 99% 30.09 in 0.2 mi Calm Calm - 0.00 in Fog Light Drizzle
5:09 AM 46.4 °F 46.4 °F 100% 30.09 in 0.5 mi Calm Calm - N/A Fog Light Drizzle
5:15 AM 46.4 °F 46.4 °F 100% 30.09 in 0.2 mi Calm Calm - N/A Fog Light Drizzle
5:49 AM 46.4 °F 46.4 °F 100% 30.09 in 0.5 mi Calm Calm - N/A Fog Light Drizzle
5:50 AM 46.4 °F 46.4 °F 100% 30.09 in 0.2 mi Calm Calm - N/A Fog Light Drizzle
5:55 AM 46.0 °F 45.9 °F 99% 30.09 in 0.5 mi Calm Calm - 0.00 in Fog Light Drizzle
6:05 AM 46.4 °F 46.4 °F 100% 30.10 in 0.2 mi Calm Calm - N/A Fog Light Drizzle
6:43 AM 46.4 °F 46.4 °F 100% 30.11 in 0.5 mi Calm Calm - N/A Fog Light Drizzle
6:49 AM 44.6 °F 44.6 °F 100% 30.11 in 0.2 mi Calm Calm - N/A Fog Light Drizzle
6:55 AM 44.6 °F 44.2 °F 99% 30.11 in 0.2 mi Calm Calm - 0.00 in Fog Light Drizzle
7:40 AM 46.4 °F 46.4 °F 100% 30.12 in 0.5 mi Calm Calm - N/A Fog Light Drizzle
7:47 AM 46.4 °F 44.6 °F 93% 30.12 in 0.2 mi Calm Calm - N/A Fog Light Drizzle
7:55 AM 46.2 °F 45.9 °F 99% 30.12 in 0.2 mi Calm Calm - 0.00 in Fog Light Drizzle
7:56 AM 46.4 °F 46.4 °F 100% 30.12 in 0.5 mi Calm Calm - N/A Fog Light Drizzle
7:58 AM 46.4 °F 46.4 °F 100% 30.10 in 3.0 mi Calm Calm - N/A   Scattered Clouds
8:55 AM 52.0 °F 51.8 °F 99% 30.12 in 6.0 mi Calm Calm - 0.00 in   Clear
9:55 AM 58.3 °F 58.1 °F 99% 30.13 in 10.0 mi Calm Calm - 0.00 in   Clear
10:55 AM 67.5 °F 65.8 °F 95% 30.12 in 10.0 mi Calm Calm - 0.00 in   Clear
11:55 AM 75.9 °F 55.9 °F 50% 30.09 in 10.0 mi ESE 5.8 mph - N/A   Clear
12:55 PM 77.4 °F 57.4 °F 50% 30.08 in 10.0 mi East 6.9 mph - N/A   Partly Cloudy
1:55 PM 77.9 °F 54.5 °F 44% 30.05 in 10.0 mi ENE 6.9 mph - N/A   Clear
2:55 PM 79.2 °F 53.8 °F 41% 30.03 in 10.0 mi NE 5.8 mph - N/A   Clear
3:55 PM 78.8 °F 52.5 °F 40% 30.02 in 10.0 mi ESE 4.6 mph - N/A   Clear
4:55 PM 78.4 °F 50.9 °F 38% 30.00 in 10.0 mi Variable 3.5 mph - N/A   Clear
6:55 PM 76.1 °F 54.0 °F 46% 30.00 in 10.0 mi Calm Calm - N/A   Clear
6:56 PM 75.2 °F 53.6 °F 47% 30.00 in 10.0 mi Calm Calm - N/A   Light Drizzle
7:03 PM 77.0 °F 53.6 °F 44% 30.00 in 10.0 mi Calm Calm - N/A   Clear
7:55 PM 69.3 °F 55.2 °F 61% 29.99 in 10.0 mi Calm Calm - 0.00 in   Clear
8:55 PM 64.8 °F 54.7 °F 70% 30.00 in 10.0 mi Calm Calm - N/A   Clear
9:55 PM 65.5 °F 54.9 °F 68% 30.01 in 10.0 mi NNE 4.6 mph - N/A   Clear
10:55 PM 63.3 °F 54.5 °F 73% 30.02 in 10.0 mi NE 5.8 mph - N/A   Clear
11:55 PM 60.8 °F 53.2 °F 76% 30.03 in 10.0 mi NE 5.8 mph - N/A   Clear